Lapse_Rate
3.6 4.1 6.2 6.3 6.2 6.2 6.0 5.9 5.9 6.1 6.1 6.1 5.9 5.9 6.3 6.5 6.4 6.1 6.0 5.9 6.0 6.3 6.1 6.4 6.4 6.6 6.9 6.9 6.7 6.4 6.1 5.7 6.2 6.0 5.9 5.9 6.3 5.9 6.3 6.2 6.2 6.4 6.2
3.5 4.7 5.9 6.0 6.1 6.3 6.1 5.9 5.8 5.7 5.7 5.7 5.8 5.9 6.1 6.1 6.2 6.2 6.0 6.1 5.9 6.5 6.4 6.4 6.7 6.7 6.7 6.6 6.4 6.2 6.2 6.2 6.1 6.2 6.4 6.5 6.2 5.9 6.3 6.2 6.0 6.2 6.3
3.9 5.2 5.6 6.1 6.2 6.3 5.9 5.8 5.7 5.6 5.6 5.7 5.8 6.1 6.1 6.1 6.2 6.2 6.4 6.1 6.1 6.4 6.7 6.6 6.6 6.4 6.4 6.4 6.4 6.3 6.1 6.1 6.4 6.8 6.5 5.6 6.2 6.2 6.2 5.8 6.0 6.3 6.3
4.1 4.6 4.6 5.9 5.9 6.1 5.9 5.8 5.9 5.8 5.9 5.9 6.1 6.2 6.1 5.9 6.2 6.2 6.5 6.4 6.4 6.6 6.7 6.3 6.0 6.2 6.2 6.5 6.4 6.2 6.0 5.9 5.9 5.5 5.4 5.5 6.8 6.7 6.5 6.4 6.1 5.9 5.7
3.9 4.4 5.1 6.0 6.1 6.1 6.2 5.8 5.8 5.9 5.6 6.1 6.1 6.0 5.9 5.8 6.2 6.5 6.4 6.5 6.9 6.5 6.4 6.3 6.3 6.2 6.2 6.5 6.3 6.2 5.9 6.1 5.7 5.2 4.5 4.7 5.5 6.9 6.9 6.2 5.9 5.8 5.7
3.9 4.6 5.8 6.2 6.4 6.1 6.2 6.1 5.9 5.8 6.1 6.1 6.2 5.9 6.1 6.2 6.4 6.6 6.7 6.4 6.6 6.4 6.2 6.4 6.5 6.4 6.5 6.4 6.2 5.9 6.1 6.1 6.3 5.1 4.2 4.2 4.7 5.8 5.7 5.8 6.0 5.9 5.7
3.8 4.7 5.7 5.8 6.1 6.0 6.4 6.4 6.2 6.2 6.4 6.2 6.1 6.2 5.9 6.4 7.0 6.6 6.2 6.2 6.0 6.2 6.1 6.3 6.2 6.6 6.6 6.6 6.2 6.0 5.9 6.3 5.6 4.4 4.2 4.0 4.7 5.8 5.9 6.2 6.3 6.0 5.7
3.5 4.2 5.4 6.2 6.3 6.4 6.8 6.4 6.4 6.2 6.2 6.2 6.2 6.1 6.1 6.4 6.6 6.4 5.9 6.0 5.9 5.8 5.6 6.1 6.1 6.0 6.1 5.9 6.1 5.9 5.7 5.8 4.9 3.5 3.7 4.0 4.8 5.9 6.2 6.1 6.1 5.9 5.8
4.1 3.8 3.8 5.7 6.8 6.9 6.9 6.5 6.4 6.3 6.4 6.3 6.3 6.0 6.1 6.9 6.8 6.3 5.9 5.5 5.9 5.9 5.5 5.6 5.9 5.5 5.8 5.8 5.9 5.8 5.7 5.1 4.1 3.8 4.1 3.7 4.7 6.9 6.5 5.9 6.1 6.0 5.8
3.6 3.5 3.7 3.8 3.9 4.9 5.7 6.4 6.6 6.4 6.4 6.4 6.4 6.1 6.6 6.6 6.7 6.4 5.4 5.6 5.9 5.9 5.9 5.8 5.6 5.6 5.9 6.1 6.2 6.0 5.8 5.1 4.2 3.6 4.0 4.2 4.5 5.9 5.7 6.0 5.5 5.5 5.7
4.4 3.6 3.6 3.8 4.3 4.5 4.8 5.9 6.6 6.6 6.5 6.5 6.6 6.4 6.4 6.6 6.7 5.6 4.8 5.8 6.0 5.9 5.9 5.9 5.8 6.0 6.1 5.8 5.7 5.7 5.5 4.6 3.9 3.5 3.5 4.3 4.5 5.7 6.2 6.1 5.5 5.0 3.4
4.1 3.8 3.4 3.3 3.7 4.2 4.7 3.7 4.3 4.4 4.4 4.2 3.7 3.9 4.5 4.6 4.9 4.7 4.9 5.7 5.7 5.6 5.6 5.4 5.3 5.4 5.3 4.8 4.8 4.8 4.3 3.9 3.6 3.4 3.0 3.6 5.0 5.2 5.3 6.5 6.0 5.7 5.2
4.7 5.0 4.3 3.3 3.8 3.7 3.8 3.8 3.9 4.1 3.8 4.0 4.3 4.4 4.3 3.8 3.9 3.7 3.5 3.4 3.7 4.3 4.2 4.5 4.4 4.2 4.2 4.4 4.8 4.3 3.8 3.1 3.2 3.4 3.4 2.7 4.5 4.4 4.7 4.2 6.0 6.2 6.6
4.6 5.4 4.8 4.3 3.5 3.6 3.7 4.3 4.1 4.0 3.5 3.5 4.0 4.2 4.2 3.3 3.2 3.0 2.7 3.0 3.0 3.5 3.0 3.4 3.3 3.6 3.7 3.5 3.3 3.3 3.4 3.2 3.4 2.9 2.7 3.0 3.8 4.7 5.3 5.2 5.2 6.3 6.4
4.0 4.8 4.5 4.3 3.3 3.4 3.4 3.8 3.9 4.1 3.8 4.1 4.3 4.5 4.2 3.3 2.8 2.7 2.7 2.9 2.9 3.2 2.9 2.7 2.8 2.9 2.7 3.0 3.2 2.7 2.7 2.7 2.9 2.9 2.3 3.1 3.4 4.2 4.9 5.5 6.0 6.1 6.2
3.4 3.6 3.8 3.9 3.6 3.7 2.9 3.5 3.3 3.7 4.1 4.1 4.5 4.4 4.0 3.4 3.0 2.7 2.8 3.0 3.2 3.2 3.2 2.7 2.5 2.5 3.0 3.0 3.4 3.8 4.0 3.1 3.1 2.9 2.7 2.9 3.7 3.9 4.4 4.7 5.4 5.6 5.9
3.0 3.3 3.6 4.0 3.9 3.5 3.1 3.1 3.0 3.8 4.3 4.1 4.0 4.4 4.2 3.8 3.3 3.0 2.5 2.6 3.0 3.1 2.9 2.8 2.9 2.8 2.6 2.8 2.9 3.2 3.5 3.6 3.3 3.0 2.9 2.8 3.1 3.6 4.0 4.1 4.5 5.1 5.3
3.1 3.0 3.4 5.7 4.2 3.5 3.0 3.2 3.7 4.3 4.5 4.1 4.0 4.1 4.3 4.1 3.5 2.9 2.7 2.8 3.0 2.9 2.5 2.5 2.9 2.9 2.7 2.1 2.5 2.7 2.8 2.7 3.1 3.2 3.4 3.2 2.9 3.5 3.2 3.3 4.0 4.3 4.9
2.6 2.6 3.2 4.1 3.6 3.4 3.4 3.9 4.0 4.6 4.0 4.5 4.2 4.0 4.4 4.5 4.0 3.2 2.7 2.7 3.0 2.6 2.5 2.4 3.2 2.7 3.3 3.0 3.1 2.4 2.2 2.5 2.6 3.8 3.4 2.9 2.5 2.5 2.7 2.7 2.7 3.7 4.1
2.6 2.3 3.1 3.3 3.4 3.0 3.6 3.6 3.5 3.7 3.9 4.2 4.0 4.0 4.4 4.5 4.1 3.5 2.8 3.1 2.9 3.0 2.6 2.5 3.1 3.2 3.3 2.3 3.9 4.3 3.1 2.7 2.4 2.5 3.1 3.7 2.6 2.5 2.6 2.1 2.2 3.1 3.9
2.9 2.3 2.3 2.8 2.5 2.1 2.5 3.2 3.2 3.5 3.9 3.7 3.8 4.2 4.0 4.3 4.0 3.7 3.3 3.2 3.4 3.7 3.6 3.2 3.4 3.4 3.9 2.9 3.0 3.4 2.6 2.7 2.9 2.5 2.0 1.9 2.8 3.2 2.8 2.6 2.6 3.1 4.1
2.8 2.6 2.0 2.3 1.8 1.9 1.9 2.1 3.0 3.3 3.3 3.8 3.8 3.9 4.1 4.2 3.9 3.6 3.5 3.7 3.8 3.7 3.5 3.7 3.4 3.3 3.2 3.1 3.8 2.6 3.1 3.8 3.2 3.0 1.8 2.8 3.2 2.9 3.4 3.4 2.9 3.4 4.0
3.1 2.6 2.5 2.1 2.0 1.9 1.8 1.9 2.3 2.8 2.9 3.3 3.2 3.3 3.4 3.9 3.9 3.8 3.7 3.7 3.8 3.5 3.6 3.8 3.8 3.9 4.2 3.7 3.2 4.0 4.3 4.8 2.6 2.9 3.2 2.9 2.7 2.4 2.4 2.2 3.0 3.6 3.6
3.0 3.5 3.0 2.5 2.1 1.9 1.3 2.0 2.4 2.5 2.8 2.6 3.2 3.1 3.4 4.1 4.0 4.0 3.7 3.4 3.4 3.3 3.9 3.9 3.8 3.4 3.5 4.2 3.8 4.0 3.0 3.7 5.0 4.7 3.5 2.9 2.7 3.4 2.6 1.7 2.9 3.3 3.4
3.2 3.2 3.0 2.4 2.3 2.7 1.9 2.2 2.3 2.3 2.3 3.0 3.0 3.4 3.2 3.1 3.5 4.0 3.9 3.7 3.5 3.4 3.4 3.6 3.8 3.7 3.4 4.2 3.7 4.1 3.5 2.8 2.3 3.5 4.7 4.0 3.9 3.8 3.1 2.3 2.4 2.5 3.1
3.2 3.2 3.2 2.1 2.2 2.4 2.3 1.8 2.1 2.6 2.5 2.8 3.2 3.0 2.7 2.5 2.8 3.3 3.9 3.5 3.7 3.7 3.5 3.7 3.8 3.7 3.9 3.7 3.9 3.5 4.0 4.3 4.5 4.0 3.5 4.0 4.3 4.3 3.7 3.5 3.1 2.6 2.6
Wind_Speed
4 7 15 13 12 12 13 12 13 13 13 14 16 16 15 15 14 13 11 12 12 11 11 10 13 12 11 11 11 11 11 10 11 11 10 11 13 13 12 12 11 10 14
7 9 15 14 12 13 15 13 13 12 12 12 14 15 14 14 14 13 12 12 12 11 11 12 14 13 12 13 13 12 12 11 10 10 9 10 12 12 12 12 11 11 13
8 10 12 14 13 15 15 14 13 12 11 11 11 13 12 12 13 12 12 12 12 11 12 13 13 13 12 12 13 14 12 10 9 7 8 7 9 10 10 10 10 12 12
10 12 11 13 13 16 15 14 13 11 11 10 10 11 10 11 12 12 11 11 13 12 12 13 13 13 12 12 13 12 11 10 11 7 6 5 8 10 10 10 10 9 9
8 11 12 13 15 16 14 13 11 10 9 9 10 10 10 10 11 12 12 12 12 12 13 13 13 12 11 11 11 10 9 6 3 2 4 4 5 7 9 9 9 9 9
6 11 14 12 13 14 14 13 11 9 8 9 11 10 10 10 11 12 11 12 12 13 12 13 11 10 9 8 6 4 3 5 5 5 4 4 5 7 8 8 9 9 9
5 4 14 13 13 12 12 12 11 10 8 9 10 9 10 10 11 11 12 12 12 12 11 11 9 9 6 5 3 1 2 5 3 8 6 4 4 6 6 6 6 5 7
6 8 12 12 13 13 12 10 10 9 7 9 9 9 9 10 11 11 12 11 11 10 8 8 7 7 5 2 2 2 5 7 4 7 7 5 5 4 4 3 4 5 6
5 6 4 12 11 10 12 11 10 8 9 11 10 10 9 10 10 11 9 9 8 7 6 5 6 5 3 3 3 5 5 3 7 8 6 4 3 3 4 7 6 7 8
4 5 6 5 10 7 7 10 10 11 10 9 10 9 9 10 10 8 6 7 6 4 3 1 3 2 2 2 3 3 2 3 5 5 7 5 7 8 7 5 9 12 10
4 4 6 6 7 7 4 6 10 9 11 12 11 10 9 6 7 6 4 5 4 2 1 3 5 6 4 3 3 3 3 2 4 7 10 11 10 8 14 9 11 13 7
5 4 5 6 6 5 4 4 5 7 9 8 7 7 10 5 4 4 3 3 2 1 2 5 7 8 8 5 6 6 7 7 6 8 10 14 12 14 17 11 14 16 14
5 4 4 4 6 6 5 7 9 5 8 9 7 8 8 4 2 2 2 2 3 4 2 3 4 7 8 9 11 11 9 10 10 9 11 16 16 21 17 17 17 19 16
7 7 5 5 5 4 6 7 2 4 5 6 5 5 5 3 0 2 1 3 4 6 6 4 4 7 9 12 12 12 10 8 9 8 9 14 16 18 18 18 18 17 16
7 6 6 5 5 6 5 8 6 4 5 5 4 3 4 4 3 5 5 3 3 6 8 8 5 5 6 9 11 9 6 6 9 6 6 11 15 19 19 16 16 16 15
7 7 6 6 6 7 4 6 5 5 5 3 2 2 3 5 6 6 3 2 2 5 8 8 5 3 4 7 6 7 4 1 2 5 6 7 10 13 15 14 15 16 15
5 6 7 7 7 5 5 6 6 6 5 3 4 3 4 6 6 4 3 2 4 4 7 8 7 4 4 5 3 4 4 2 2 7 8 7 7 12 14 15 15 15 13
6 7 6 8 7 6 5 6 6 7 6 7 5 4 5 5 4 4 2 2 3 3 3 3 2 3 3 3 3 3 3 4 5 8 6 5 7 7 11 15 14 15 12
8 7 7 6 7 6 6 6 6 7 6 6 6 5 5 4 4 4 2 3 2 2 2 1 1 2 2 2 2 2 3 3 3 6 5 6 7 7 7 11 14 12 12
7 7 6 6 6 6 3 3 3 3 5 8 7 8 6 5 3 3 2 3 1 1 1 1 1 2 2 1 3 3 2 3 3 3 4 2 3 6 9 11 9 7 7
8 8 8 7 6 4 2 3 2 3 3 3 6 9 11 7 7 7 4 3 1 2 2 0 1 1 2 3 2 2 2 2 5 3 3 4 3 4 7 6 8 6 3
12 10 9 9 7 6 3 3 2 2 2 1 2 6 7 9 9 9 5 2 2 2 2 0 1 0 0 3 1 1 3 3 3 2 3 2 3 3 4 4 5 4 2
13 13 12 12 9 7 6 2 2 1 1 1 2 1 4 11 11 10 8 4 2 1 2 2 0 1 1 1 3 2 1 1 2 2 3 3 5 4 5 7 3 2 2
16 12 11 11 9 8 8 4 5 3 4 3 3 3 3 9 10 11 9 7 4 2 2 2 2 1 1 0 1 2 1 1 0 3 2 3 4 4 5 4 2 3 4
14 14 13 11 10 9 10 9 6 5 3 2 2 3 2 3 8 9 9 6 3 3 2 3 2 3 2 1 1 1 0 1 1 1 2 3 3 3 5 5 4 1 3
12 12 12 13 12 11 11 11 10 8 6 3 3 3 3 2 3 5 7 7 7 4 4 3 3 4 3 2 2 2 2 2 2 1 1 2 3 3 3 4 4 2 2
Wind_Direction
178 176 160 155 145 142 138 130 124 122 118 114 113 115 118 121 123 124 125 116 109 111 103 103 96 94 95 101 105 111 110 88 93 94 94 98 100 107 117 121 117 116 126
133 163 158 154 147 148 142 137 130 126 120 114 116 117 119 118 118 123 117 113 109 106 105 101 96 95 94 94 99 103 96 91 92 94 101 104 104 110 113 115 121 115 122
134 149 160 156 147 148 145 142 134 128 125 123 118 114 119 117 120 117 119 116 113 111 105 100 94 98 95 93 96 92 92 90 92 97 95 107 112 117 118 119 119 123 127
130 140 152 150 143 148 148 147 143 134 130 130 126 121 127 124 123 124 122 124 116 111 109 101 98 97 97 98 98 99 98 103 85 86 90 95 130 124 124 126 130 132 136
113 138 154 151 144 147 150 149 147 140 133 137 129 133 131 125 125 124 128 122 118 110 106 106 103 107 103 106 105 105 105 122 36 90 98 98 98 133 136 137 143 148 148
119 150 153 146 144 149 152 155 153 145 149 137 133 142 136 134 128 134 131 128 114 110 114 115 117 115 123 120 119 133 193 245 254 152 150 150 151 146 148 150 160 166 168
136 154 140 149 152 155 159 162 150 154 160 145 142 148 130 143 139 141 131 125 122 122 125 122 130 119 114 123 142 183 321 310 194 178 169 173 185 175 165 168 179 191 190
137 163 144 152 155 158 155 154 155 158 157 150 153 145 141 151 147 143 133 128 127 128 131 125 119 104 97 90 103 46 21 59 109 170 178 168 208 236 158 201 208 213 222
133 121 101 150 146 155 155 156 159 164 168 167 164 152 158 153 146 146 140 135 131 129 128 126 106 98 87 57 64 32 15 86 131 158 191 167 200 119 296 229 214 231 229
110 115 109 99 130 130 148 166 171 181 172 165 163 156 163 154 149 143 138 140 136 137 114 90 78 52 50 7 2 8 17 92 182 201 211 185 187 206 233 337 269 235 237
126 126 129 126 134 137 141 183 186 174 167 165 165 169 158 143 136 136 158 151 149 154 46 341 349 343 342 355 341 349 313 248 216 212 210 220 186 208 230 237 252 264 275
158 163 150 145 143 127 117 61 83 79 115 109 94 118 119 120 129 145 186 170 202 259 2 347 341 331 324 310 290 271 267 255 230 224 223 215 190 203 223 230 241 253 246
165 168 160 147 147 133 107 105 83 122 116 104 101 112 113 113 71 101 336 346 330 318 290 304 320 307 310 310 301 286 268 261 259 239 224 216 192 213 210 225 238 242 242
176 183 165 161 147 131 109 91 127 158 120 115 119 134 144 141 168 191 208 280 292 290 293 285 298 297 292 285 274 273 273 265 259 254 241 221 203 213 226 227 239 236 243
181 183 170 159 170 160 133 139 212 188 167 147 170 190 199 192 212 204 227 230 272 295 292 300 307 293 282 277 276 260 258 251 248 242 250 237 211 208 222 234 247 249 250
168 174 166 177 176 165 154 174 195 191 190 186 204 215 198 187 195 202 213 226 265 286 294 292 298 331 309 288 281 285 288 257 220 216 221 228 242 229 230 237 246 257 261
181 167 171 171 172 167 176 185 185 200 193 231 231 204 188 209 231 201 206 222 249 299 323 317 307 352 338 325 310 318 315 283 223 222 217 222 235 249 250 252 261 266 273
166 176 169 183 178 174 182 179 184 196 202 232 241 208 211 197 214 197 166 212 279 336 345 323 327 333 25 336 325 318 346 358 338 291 257 244 234 251 271 267 262 269 283
174 166 174 174 175 180 193 172 187 191 213 234 257 240 242 205 154 167 182 226 115 3 354 353 333 1 357 303 287 351 7 353 335 308 280 246 246 240 256 283 275 270 266
166 164 172 182 180 177 175 155 173 191 218 234 237 240 219 201 181 192 169 183 193 138 59 2 30 339 315 320 308 317 322 322 318 326 314 311 248 261 269 272 268 251 240
171 167 177 181 196 159 146 156 182 204 200 213 206 228 227 212 188 220 216 213 165 173 140 347 346 12 305 26 351 329 333 316 305 332 329 296 287 262 281 261 224 222 188
180 183 175 196 188 191 173 167 170 174 217 176 159 223 218 205 197 205 217 213 225 138 135 351 39 191 313 35 65 357 358 334 327 346 334 325 310 299 296 250 250 237 232
187 188 188 191 194 187 181 140 114 61 28 115 229 241 206 198 196 207 220 224 196 148 152 168 189 24 34 348 59 127 14 295 316 331 353 329 321 323 320 292 270 216 180
197 191 189 186 187 191 167 178 185 180 192 213 199 199 208 210 199 200 213 226 226 209 221 176 173 173 145 346 333 45 48 165 97 334 341 315 323 344 346 345 243 200 154
183 188 188 183 186 193 186 190 195 210 211 197 213 237 222 229 234 210 203 216 223 207 232 244 204 197 185 178 206 278 69 43 51 133 296 327 327 332 13 7 353 292 115
185 184 186 182 192 191 191 188 191 205 209 195 222 235 234 217 237 218 207 210 224 220 217 230 254 225 233 231 203 226 229 208 218 173 206 284 293 314 333 12 23 52 119